Find Starlink 31820

NORAD ID: 59725 Int'l Des: 2024-088 Owner: SPXS Country: US Constellation: starlink operational
LEOCIRCULAR

当前视图

正在加载3D地球...

About Starlink 31820

Starlink 31820 (NORAD 59725) is a starlink constellation satellite (v2 mini) launched May 10, 2024 by SPXS of US. It operates in LEO, CIRCULAR orbit with a mass of 730.00 kg.

关于 Starlink 31820

正在加载描述...

即将过境

Passes for default location (London). Set your location on the main map for personalized predictions.

高度历史

Loading altitude history...

两行轨道根数

1 59725U 24088T 26170.75192293 .00000423 00000-0 25395-4 0 9991
2 59725 53.1617 25.4718 0001326 114.7397 245.3742 15.31704834119312
Epoch: Jun 19, 2026 • Age: 9 hours

当前状态

高度 490.1 km
速度 7.62 km/s
星下点 -53.31°S, 19.72°W
发射日期 May 10, 2024
运行时间 2.1 years
类型 internet

技术详情

分类 Payload
质量 730.00 kg
干质量 700.00 kg
总质量 730.00 kg
长度 0.30 m
直径 4.10 m
跨度 29.00 m
形状 Box + pan
制造商 SPXS
平台类型 Starlink V2M
阶段状态 In Orbit
所有者/国家 SPXS/US

Most Searched